Location: *
(45.0500°N, 12.0500°E)
Time: 11:02:53
(UTC+00:00)

Cosmos 1703 - Pass Details

Date: 09 April 2020
Orbit: 524 x 540 km, 82.5° (Epoch: 22 May)

Event Time Altitude Azimuth Distance (km) Brightness Sun altitude
Rises 19:01:22 0° 346° (NNW) 2,704 7.5 -12.7°
Reaches altitude 10° 19:03:34 10° 341° (NNW) 1,809 6.6 -13.1°
Maximum altitude 19:07:26 51° 266° (W) 683 4.1 -13.7°
Drops below altitude 10° 19:11:16 10° 190° (S) 1,796 5.8 -14.3°
Sets 19:13:27 0° 185° (S) 2,683 6.6 -14.6°
